Torna al catalogo

STARLINK-11301

AttivoComunicazioniVLEO
NORAD 61885·PAYLOAD·🇺🇸 United States

Lanciato Nov 9, 2024 da Vandenberg Space Force Base

Loading…

Prossimi Passaggi (prossime 24 ore)

TLE

AggiornatoSource: CelesTrak SupGP

Epoca: Sep 15, 2026, 03:41 UTC

1 61885C 24204M   26258.15395833  .00077753  00000+0  64030-3 0  2582
2 61885  53.1566 142.0450 0001136  93.8285 323.6031 15.69677488    18

Traccia STARLINK-11301 in tempo reale con AllMySat

Download on the App Store